www.pogodaiklimat.ru

Погода и климат >> Архив погоды >> Россия >> Приморский край >> Полтавка


ПОГОДА в Полтавке

  • Прогноз погоды в Полтавке
  • Монитор погоды в Полтавке

АРХИВ ПОГОДЫ в Полтавке

Время (UTC), дата Ветер
(напр.,м/с)
 
Видим.   Явления Облачность Т
(С)
Тd
(С)
f
(%)
Тe
(С)
Тes
(С)
Комфортность P
(гПа)
Po
(гПа)
Тmin
(С)
Tmax
(С)
R
(мм)
R24
(мм)
S
(см)
00 16.04 штиль 0
{4}
н/о н/о +8.5 -2.4 46 +8 +8 1008.0 994.5 -3.9
03 16.04 ЮЗ 3 50 км 4 балла +22.4 -6.4 14 +21 +28 комфорт 1005.9 993.3
06 16.04 ЮЗ 5
{12}
н/о н/о +25.3 -9.9 9 +22 1003.1 990.7
09 16.04 ЮЗ 4
{14}
50 км 3/0
[Ci fib]
+24.9 -13.3 7 +22 +22 комфорт 1003.1 990.7 +26.9
12 16.04 Ю 5
{14}
н/о н/о +17.8 -13.1 11 +17 1006.1 993.3
15 16.04 ЮВ 3 50 км ясно +8.9 -5.7 35 +7 +7 1007.9 994.7
18 16.04 ЮВ 4 н/о н/о +3.8 -0.6 73 -1 1008.1 994.7
21 16.04 ЮВ 2 50 км ясно -0.1 -2.6 83 -4 -3 1008.3 994.7 -1.0
00 17.04 ЮВ 2
{7}
н/о н/о +15.6 -1.3 31 +16 +16 1006.7 993.6
03 17.04 Ю 3 50 км 10 баллов +24.1 -9.4 10 +22 +22 комфорт 1004.5 992.0
06 17.04 ЮЗ 3
{10}
н/о н/о +26.9 -8.7 9 +24 1000.3 988.0
09 17.04 Ю 9-15
{15}
50 км 10/3 600 м
[Sc Ac trans Ci sp]
+22.8 -11.7 9 +20 +20 999.2 986.7 +28.0
12 17.04 В 1
{15}
н/о н/о +15.8 -12.1 14 +17 +17 999.7 986.7
15 17.04 В 2 50 км 9 баллов +10.3 -4.1 36 +9 +9 999.7 986.7
18 17.04 С 1 н/о н/о +8.5 +0.2 56 +8 998.4 985.3
21 17.04 С 2 50 км 9/5 600 м
[Cb cap Ac trans]
+7.4 +0.6 62 +6 +6 998.4 985.3 +6.4
00 18.04 З 6-14
{18}
н/о н/о +15.0 -2.9 29 +14 +14 1000.8 988.0
03 18.04 З 9-16
{19}
50 км 8/8 600 м
[Cu med, cong]
+10.4 -7.3 28 +7 +8 1006.4 993.3
06 18.04 З 8
{19}
н/о н/о +7.5 -9.4 29 +3 1009.3 996.0
09 18.04 З 5
{17}
50 км 10/8 1000 м
[Sc Ci fib]
+6.3 -9.2 32 +3 +3 1012.1 998.7 +15.9
12 18.04 З 3
{13}
н/о н/о +4.2 -10.9 32 +2 +2 1014.4 1000.7
15 18.04 З 2 50 км ясно +3.7 -13.1 28 +2 +2 1016.2 1002.7
18 18.04 штиль 0 н/о н/о -1.1 -12.1 43 -1 1017.8 1004.0
21 18.04 З 2 50 км ясно -1.3 -10.8 48 -4 -4 1016.8 1002.8 -2.3
00 19.04 З 4 н/о н/о +8.1 -11.5 24 +6 +6 1016.2 1002.6
03 19.04 З 7 50 км ясно +12.0 -16.5 12 +10 +14 1015.9 1002.7
06 19.04 З 7 н/о н/о +14.7 -17.8 9 +13 1013.0 1000.0
09 19.04 З 5
{14}
50 км ясно +13.4 -18.8 9 +12 +12 1013.1 1000.0 +14.9
12 19.04 В 1 н/о н/о +1.9 -14.2 29 +1 1016.3 1002.7
15 19.04 штиль 0 50 км ясно +1.3 -14.0 31 +1 +1 1017.7 1004.0
18 19.04 штиль 0 н/о н/о -3.7 -12.6 50 -4 1017.9 1004.0
21 19.04 В 1 50 км 5/0
[Ci fib]
-6.4 -11.7 66 -8 -8 1016.5 1002.2 -6.8
00 20.04 штиль 0 н/о н/о +5.5 -11.9 27 +6 +6 1014.9 1001.2
03 20.04 В 3 50 км 10 баллов +12.3 -10.7 19 +11 +11 1011.8 998.7
06 20.04 ЮВ 5 н/о н/о +16.4 -11.2 14 +16 1007.5 994.7
09 20.04 В 3 50 км 10/0
[Ac lent Cs]
+13.8 -10.8 17 +13 +13 1006.2 993.3 +16.8
12 20.04 штиль 0 н/о н/о +8.4 -7.7 31 +8 1007.9 994.7
15 20.04 З 4 50 км 4 балла +12.3 -0.2 42 +11 +11 1009.0 996.0
18 20.04 З 3 н/о н/о +8.5 +0.2 56 +6 1011.9 998.7
21 20.04 ЮЗ 1 50 км 8/0
[Ci fib]
+4.3 -2.7 60 +3 +4 1013.1 999.4 +3.5
00 21.04 З 4 н/о н/о +11.6 -8.3 24 +10 +10 1013.6 1000.2
03 21.04 З 4 20 км 10 баллов +15.2 -17.5 9 +15 +15 1013.0 1000.0
06 21.04 З 4 н/о н/о +17.9 -18.4 7 +18 1010.1 997.3
09 21.04 СЗ 2
{10}
20 км ясно +16.6 -15.1 10 +17 +18 1010.2 997.3 +18.0
12 21.04 З 2 н/о н/о +11.6 -16.8 12 +11 1014.5 1001.3
15 21.04 ЮВ 1 20 км 7 баллов +0.7 -12.0 38 -0 -0 1016.4 1002.7
18 21.04 штиль 0 н/о н/о -2.4 -12.4 46 -3 1019.2 1005.3
21 21.04 штиль 0 20 км ясно -5.1 -10.6 65 -6 -5 1019.8 1005.5 -5.2
00 22.04 З 2 н/о н/о +9.1 -11.2 23 +8 +8 1019.7 1006.2 -5.3
03 22.04 В 3 50 км 2 балла +15.8 -13.5 12 +16 +27 1018.3 1005.3
06 22.04 В 4 н/о н/о +18.0 -12.9 11 +18 1015.6 1002.7
09 22.04 ЮВ 6
{11}
50 км 4/0
[Ci fib]
+17.6 -13.2 11 +17 +17 1012.9 1000.0 +18.3
12 22.04 штиль 0
{11}
н/о н/о +12.8 -16.5 11 +13 +13 1013.8 1000.4
15 22.04 ЮВ 2 50 км 10 баллов +11.1 -10.4 21 +11 +11 1013.2 1000.0
21 22.04 штиль 0 20 км {ливн. осадки} 10/4 600 м
[Cb cap Ac trans Ci fib]
+6.8 +2.8 76 +6 +6 1008.5 995.0 +6.8 0.0

 

Местоположение метеостанции Полтавка (Приморский край, Россия): широта 44.03 долгота 131.30 высота над уровнем моря 109 м.

В архиве по умолчанию представлена погода в Полтавке за последнюю неделю. Архивные данные за месяц целиком и за предыдущие месяцы, начиная с января 2011 года, Вы можете получить, выбрав интересующий диапазон дат из раскрывающегося списка и нажав кнопку "Ввод!".


*Определитесь, кто Вы:
робот инопланетянин человек

Внимание! Время в таблицах - всемирное. Для получения местного времени необходимо прибавить поправку, которая равна 10 ч.

Смотрите также архив погоды в соседних городах и на ближайших метеорологических станциях:

Погода в Суйфэньхэ (Хэйлунцзян, Китай) (41 км)
Погода в Пограничном (Приморский край, Россия) (41 км)
Погода в Тимирязевском (Приморский край, Россия) (51 км)
Погода в Хороле (Приморский край, Россия) (71 км)
Погода в Барабаше (Приморский край, Россия) (93 км)
Погода в Астраханке (Приморский край, Россия) (95 км)
Погода в Владивостоке (Приморский край, Россия) (112 км)
Погода в Многоудобном (Приморский край, Россия) (113 км)
Погода на Мысе Назимова (Приморский край, Россия) (119 км)
Погода в Анучино (Приморский край, Россия) (136 км)

Пояснения к столбцам:

Ветер - указаны скорость ветра в м/с - средняя за 10 мин, порывы в срок и между сроками (в фигурных скобках) и направление, откуда дует ветер: С - северный, СВ - северо-восточный, В - восточный, ЮВ - юго-восточный, Ю - южный, ЮЗ - юго-западный, З - западный, СЗ - северо-западный.
Видимость - горизонтальная дальность видимости в метрах или километрах. При видимости от 1 до 10 км при отсутствии осадков обычно наблюдается дымка, при ухудшении видимости до 1 км и менее - туман. В сухую погоду видимость может ухудшаться дымом, пылью или мглою.
Явления - указаны атмосферные явления, наблюдавшиеся в срок или в последний час перед сроком; фигурными скобками обозначены явления, наблюдавшиеся между сроками (за 1-3 часа до срока); квадратными скобками обозначены град или гололедные отложения с указанием их диаметра в мм.
Облачность - указаны через наклонную черту общая и нижняя облачность в баллах и высота нижней границы облаков в метрах; квадратными скобками обозначены формы облаков: Ci - перистые, Cs - перисто-слоистые, Cc - перисто-кучевые, Ac - высококучевые, As - высокослоистые, Sc - слоисто-кучевые, Ns - слоисто-дождевые, Cu - кучевые, Cb - кучево-дождевые. Подробнее классификацию облаков см. в Атласе облаков (PDF).
T - Температура воздуха - температура, измеренная на высоте 2 м над землей.
Td - Температура точки росы - температура, при понижении до которой содержащийся в воздухе водяной пар достигнет насыщения.
f - Относительная влажность воздуха - влажноcть воздуха, измеренная на высоте 2 м над землей.
Te - Эффективная температура - температура, которую ощущает одетый по сезону человек в тени. Характеристика душности погоды. При расчете учитывается влияние влажности воздуха и скорости ветра на теплоощущения человека.
Tes - Эффективная температура на солнце - температура, которую ощущает человек, с поправкой на солнечный нагрев. Характеристика знойности погоды. Зависит от высоты солнца над горизонтом, облачности и скорости ветра. Ночью, в пасмурную погоду, а также при ветре 12 м/с и более поправка равна нулю.
P - Атмосферное давление - приведенное к уровню моря атмосферное давление.
Po - Атмосферное давление - измеренное на уровне метеостанции атмосферное давление.
Tmin - Минимальная температура - минимум температуры воздуха на высоте 2 м над землей.
Tmax - Максимальная температура - максимум температуры воздуха на высоте 2 м над землей.
R - Количество осадков - Количество выпавших осадков за период времени, мм. При наведении курсора мыши на число - период времени, за который выпало указанное количество осадков.
R24 - Количество осадков - Количество выпавших осадков за 24 часа, мм.
S - Снежный покров - Высота снежного покрова, см. При наведении курсора мыши на число - состояние снежного покрова и степень покрытия местности в баллах.